Moose Lake, MN

9:51 PM CDT on July 27, 2017 (GMT -0500)
Moose Lake-Carlton County

Weather History for KMZH - January, 2013

Change the Weather History Date:

Tuesday, January 15, 2013

  Actual Average Record
Temperature  
Mean Temperature 13 °F -  
Max Temperature 26 °F 17 °F 36 °F (1949)
Min Temperature 0 °F -3 °F -53 °F (1972)
Degree Days  
Heating Degree Days 52    
Moisture  
Dew Point 2 °F    
Average Humidity 59    
Maximum Humidity 73    
Minimum Humidity 31    
Precipitation  
Precipitation 0.00 in - - ()
Sea Level Pressure  
Sea Level Pressure 30.01 in    
Wind  
Wind Speed 5 mph (SSW)    
Max Wind Speed 16 mph    
Max Gust Speed 22 mph    
Visibility 9 miles    
Events Snow    
Averages and records for this station are not official NWS values.
T = Trace of Precipitation, MM = Missing Value Source: NWS Daily Summary

Daily Weather History Graph

Daily Weather History Graph

Search for Another Location

Airport or City:

Trip Planner

Search our weather history database for the weather conditions in past years. The results will help you decide how hot, cold, wet, or windy it might be!

Date:

Astronomy

Jan. 15, 2013 Rise Set
Actual Time 7:50 AM CST 4:51 PM CST
Civil Twilight 7:16 AM CST 5:25 PM CST
Nautical Twilight 6:39 AM CST 6:02 PM CST
Astronomical Twilight 6:03 AM CST 6:38 PM CST
Moon 9:38 AM CST (1/15) 10:02 PM CST (1/15)
Length of Visible Light 10h 08m
Length of Day
9h 01m
Waxing Crescent, 19% of the Moon is Illuminated
Jan 15
Waxing Crescent
Jan 18
First Quarter
Jan 26
Full
Feb 3
Last Quarter
Feb 10
New

Hourly Weather History & Observations

Time (CST) Temp. Windchill Dew Point Humidity Pressure Visibility Wind Dir Wind Speed Gust Speed Precip Events Conditions
12:11 AM 10.4 °F - -0.4 °F 62% 30.19 in 10.0 mi Calm Calm - N/A   Overcast
12:31 AM 10.4 °F 4.0 °F -0.4 °F 62% 30.19 in 10.0 mi SSW 3.5 mph - N/A   Overcast
12:51 AM 10.4 °F 4.0 °F -0.4 °F 62% 30.18 in 10.0 mi South 3.5 mph - N/A   Overcast
1:11 AM 10.4 °F 4.0 °F -0.4 °F 62% 30.16 in 10.0 mi SSE 3.5 mph - N/A Snow Light Snow
1:31 AM 10.4 °F 4.0 °F -0.4 °F 62% 30.17 in 10.0 mi SW 3.5 mph - N/A   Overcast
1:51 AM 10.4 °F 2.2 °F -0.4 °F 62% 30.18 in 10.0 mi SSW 4.6 mph - N/A Snow Light Snow
2:11 AM 10.4 °F 0.8 °F 1.4 °F 67% 30.18 in 7.0 mi SSW 5.8 mph - N/A Snow Light Snow
2:31 AM 10.4 °F -0.4 °F 1.4 °F 67% 30.17 in 7.0 mi SW 6.9 mph - N/A Snow Light Snow
3:11 AM 10.4 °F 0.8 °F 1.4 °F 67% 30.16 in 10.0 mi SSW 5.8 mph - N/A Snow Light Snow
3:31 AM 8.6 °F -1.3 °F 1.4 °F 73% 30.16 in 5.0 mi SSW 5.8 mph - N/A Snow Light Snow
3:51 AM 8.6 °F 0.1 °F -0.4 °F 67% 30.15 in 10.0 mi SSW 4.6 mph - N/A Snow Light Snow
4:11 AM 6.8 °F -0.1 °F -0.4 °F 72% 30.15 in 10.0 mi SW 3.5 mph - N/A   Clear
4:31 AM 6.8 °F - -0.4 °F 72% 30.14 in 10.0 mi Calm Calm - N/A   Clear
4:51 AM 5.0 °F -2.1 °F -2.2 °F 72% 30.13 in 10.0 mi South 3.5 mph - N/A   Clear
5:11 AM 5.0 °F - -4.0 °F 66% 30.14 in 10.0 mi Calm Calm - N/A   Clear
5:32 AM 3.2 °F - -4.0 °F 72% 30.13 in 7.0 mi Calm Calm - N/A   Clear
5:51 AM 1.4 °F - -5.8 °F 72% 30.13 in 10.0 mi Calm Calm - N/A   Clear
6:11 AM 1.4 °F - -5.8 °F 72% 30.14 in 7.0 mi Calm Calm - N/A   Clear
6:31 AM 1.4 °F - -5.8 °F 72% 30.14 in 10.0 mi Calm Calm - N/A   Clear
6:51 AM -0.4 °F - -7.6 °F 72% 30.14 in 7.0 mi Calm Calm - N/A   Clear
7:11 AM -0.4 °F -8.3 °F -7.6 °F 72% 30.14 in 7.0 mi SW 3.5 mph - N/A   Clear
7:31 AM 1.4 °F - -7.6 °F 66% 30.15 in 10.0 mi Calm Calm - N/A   Clear
7:51 AM -0.4 °F - -7.6 °F 72% 30.15 in 7.0 mi Calm Calm - N/A   Clear
8:12 AM -0.4 °F - -7.6 °F 72% 30.15 in 10.0 mi Calm Calm - N/A   Mostly Cloudy
8:31 AM 1.4 °F - -5.8 °F 72% 30.15 in 10.0 mi Calm Calm - N/A   Overcast
8:52 AM 3.2 °F -4.2 °F -4.0 °F 72% 30.15 in 10.0 mi SW 3.5 mph - N/A   Overcast
9:11 AM 5.0 °F - -2.2 °F 72% 30.14 in 7.0 mi Calm Calm - N/A   Overcast
9:31 AM 6.8 °F -0.1 °F -0.4 °F 72% 30.14 in 7.0 mi SSW 3.5 mph - N/A   Overcast
9:51 AM 8.6 °F -1.3 °F -0.4 °F 67% 30.14 in 7.0 mi SW 5.8 mph - N/A   Overcast
10:11 AM 8.6 °F 0.1 °F 1.4 °F 73% 30.13 in 7.0 mi SSW 4.6 mph - N/A   Overcast
10:31 AM 10.4 °F 4.0 °F 1.4 °F 67% 30.13 in 10.0 mi South 3.5 mph - N/A   Overcast
10:52 AM 12.2 °F - 3.2 °F 67% 30.12 in 10.0 mi Calm Calm - N/A   Overcast
11:11 AM 12.2 °F 2.9 °F 3.2 °F 67% 30.10 in 10.0 mi SSW 5.8 mph - N/A   Overcast
11:31 AM 14.0 °F 6.5 °F 3.2 °F 62% 30.08 in 10.0 mi South 4.6 mph - N/A   Overcast
11:52 AM 15.8 °F 7.2 °F 3.2 °F 58% 30.06 in 10.0 mi South 5.8 mph - N/A   Overcast
12:11 PM 17.6 °F 6.4 °F 5.0 °F 58% 30.06 in 10.0 mi SSW 9.2 mph - N/A   Scattered Clouds
12:31 PM 19.4 °F 10.4 °F 5.0 °F 54% 30.04 in 10.0 mi SSW 6.9 mph - N/A   Clear
12:51 PM 21.2 °F 11.7 °F 5.0 °F 50% 30.02 in 10.0 mi South 8.1 mph - N/A   Clear
1:11 PM 21.2 °F 8.9 °F 5.0 °F 50% 30.01 in 10.0 mi SSW 12.7 mph 17.3 mph N/A   Clear
1:31 PM 23.0 °F 11.7 °F 5.0 °F 46% 30.00 in 10.0 mi SSW 11.5 mph 17.3 mph N/A   Clear
1:51 PM 24.8 °F 14.6 °F 3.2 °F 40% 29.99 in 10.0 mi SSW 10.4 mph 16.1 mph N/A   Clear
2:11 PM 24.8 °F 12.9 °F 3.2 °F 40% 29.98 in 10.0 mi SSW 13.8 mph 18.4 mph N/A   Clear
2:31 PM 26.6 °F 16.2 °F 3.2 °F 37% 29.97 in 10.0 mi SSW 11.5 mph 20.7 mph N/A   Clear
2:51 PM 26.6 °F 15.7 °F 3.2 °F 37% 29.96 in 10.0 mi SSW 12.7 mph 20.7 mph N/A   Clear
3:31 PM 26.6 °F 17.5 °F 1.4 °F 34% 29.95 in 10.0 mi SSW 9.2 mph - N/A   Clear
3:51 PM 26.6 °F 16.2 °F -0.4 °F 31% 29.95 in 10.0 mi SSW 11.5 mph 16.1 mph N/A   Clear
4:51 PM 23.0 °F 11.1 °F 1.4 °F 39% 29.93 in 10.0 mi South 12.7 mph 19.6 mph N/A   Clear
5:11 PM 23.0 °F 11.7 °F 1.4 °F 39% 29.93 in 10.0 mi SSW 11.5 mph 17.3 mph N/A   Clear
5:31 PM 23.0 °F 11.7 °F 3.2 °F 43% 29.92 in 10.0 mi SSW 11.5 mph - N/A   Clear
5:51 PM 23.0 °F 12.4 °F 3.2 °F 43% 29.91 in 10.0 mi SSW 10.4 mph 16.1 mph N/A   Clear
6:11 PM 21.2 °F 9.5 °F 3.2 °F 46% 29.90 in 10.0 mi SSW 11.5 mph - N/A   Clear
6:31 PM 21.2 °F 10.1 °F 5.0 °F 50% 29.89 in 10.0 mi SSW 10.4 mph - N/A   Clear
6:51 PM 21.2 °F 10.1 °F 5.0 °F 50% 29.88 in 10.0 mi SSW 10.4 mph 17.3 mph N/A   Clear
7:11 PM 21.2 °F 10.9 °F 6.8 °F 54% 29.87 in 10.0 mi SSW 9.2 mph 16.1 mph N/A   Clear
7:31 PM 21.2 °F 9.5 °F 8.6 °F 58% 29.86 in 10.0 mi SSW 11.5 mph - N/A   Clear
7:51 PM 21.2 °F 9.5 °F 8.6 °F 58% 29.84 in 10.0 mi SSW 11.5 mph 18.4 mph N/A   Clear
8:11 PM 21.2 °F 8.9 °F 8.6 °F 58% 29.82 in 10.0 mi SSW 12.7 mph 20.7 mph N/A   Clear
8:31 PM 21.2 °F 8.9 °F 8.6 °F 58% 29.80 in 10.0 mi SSW 12.7 mph 20.7 mph N/A   Clear
8:51 PM 21.2 °F 8.9 °F 8.6 °F 58% 29.79 in 10.0 mi SSW 12.7 mph 16.1 mph N/A   Clear
9:11 PM 21.2 °F 10.1 °F 8.6 °F 58% 29.78 in 10.0 mi SSW 10.4 mph 18.4 mph N/A   Clear
9:31 PM 23.0 °F 10.6 °F 8.6 °F 54% 29.76 in 10.0 mi SSW 13.8 mph - N/A   Clear
9:51 PM 23.0 °F 12.4 °F 8.6 °F 54% 29.75 in 10.0 mi SSW 10.4 mph 16.1 mph N/A   Clear
10:11 PM 23.0 °F 11.7 °F 8.6 °F 54% 29.74 in 10.0 mi SSW 11.5 mph - N/A   Clear
10:31 PM 23.0 °F 9.6 °F 8.6 °F 54% 29.72 in 10.0 mi SSW 16.1 mph 20.7 mph N/A   Clear
10:51 PM 23.0 °F 11.1 °F 8.6 °F 54% 29.71 in 10.0 mi SSW 12.7 mph 20.7 mph N/A   Clear
11:11 PM 23.0 °F 11.7 °F 8.6 °F 54% 29.70 in 10.0 mi SSW 11.5 mph 18.4 mph N/A   Clear
11:32 PM 23.0 °F 10.6 °F 6.8 °F 50% 29.69 in 10.0 mi SSW 13.8 mph 21.9 mph N/A   Mostly Cloudy
11:52 PM 23.0 °F 10.1 °F 6.8 °F 50% 29.66 in 10.0 mi SSW 15.0 mph 20.7 mph N/A   Overcast